Weather History for Perryton, TX

Change the Weather History Date:

Sunday, December 30, 2012

  Actual Average Record
Temperature  
Mean Temperature 34 °F -  
Max Temperature 44 °F 42 °F 69 °F (1965)
Min Temperature 23 °F 17 °F -7 °F (1983)
Degree Days  
Heating Degree Days 32    
Moisture  
Dew Point 18 °F    
Average Humidity 52    
Maximum Humidity 93    
Minimum Humidity 31    
Precipitation  
Precipitation 0.02 in - - ()
Sea Level Pressure  
Sea Level Pressure 30.08 in    
Wind  
Wind Speed 15 mph (South)    
Max Wind Speed 38 mph    
Max Gust Speed 46 mph    
Visibility 10 miles    
Events      
Averages and records for this station are not official NWS values.
T = Trace of Precipitation, MM = Missing Value Source: NWS Daily Summary

Daily Weather History Graph

Daily Weather History Graph

Search for Another Location

Airport:

Trip Planner

Search our weather history database for the weather conditions in past years. The results will help you decide how hot, cold, wet, or windy it might be!

Date:

Astronomy

Dec. 30, 2012 Rise Set
Actual Time 7:54 AM CST 5:37 PM CST
Civil Twilight 7:25 AM CST 6:06 PM CST
Nautical Twilight 6:53 AM CST 6:38 PM CST
Astronomical Twilight 6:22 AM CST 7:09 PM CST
Moon 8:05 PM CST (12/30) 9:08 AM CST (12/30)
Length of Visible Light 10h 40m
Length of Day
9h 42m
Waning Gibbous, 95% of the Moon is Illuminated
Dec 30
Waning Gibbous
Jan 4
Last Quarter
Jan 11
New
Jan 18
First Quarter
Jan 26
Full

Hourly Weather History & Observations

Time (CST) Temp. Windchill Dew Point Humidity Pressure Visibility Wind Dir Wind Speed Gust Speed Precip Events Conditions
12:15 AM 28.4 °F 19.1 °F 17.6 °F 64% 30.19 in 10.0 mi South 10.4 mph - N/A   Clear
12:35 AM 26.6 °F 16.2 °F 17.6 °F 69% 30.19 in 10.0 mi South 11.5 mph - N/A   Clear
12:55 AM 28.4 °F 18.5 °F 17.6 °F 64% 30.18 in 10.0 mi South 11.5 mph - N/A   Clear
1:15 AM 28.4 °F 18.0 °F 17.6 °F 64% 30.17 in 10.0 mi South 12.7 mph - N/A   Clear
1:35 AM 28.4 °F 18.0 °F 17.6 °F 64% 30.17 in 10.0 mi South 12.7 mph - N/A   Clear
1:55 AM 28.4 °F 18.0 °F 17.6 °F 64% 30.17 in 10.0 mi South 12.7 mph - N/A   Clear
2:15 AM 28.4 °F 18.0 °F 17.6 °F 64% 30.17 in 10.0 mi South 12.7 mph - N/A   Clear
2:35 AM 28.4 °F 19.1 °F 17.6 °F 64% 30.18 in 10.0 mi South 10.4 mph - N/A   Clear
2:55 AM 26.6 °F 17.5 °F 17.6 °F 69% 30.17 in 10.0 mi South 9.2 mph - N/A   Clear
3:15 AM 26.6 °F 18.2 °F 17.6 °F 69% 30.17 in 10.0 mi South 8.1 mph - N/A   Clear
3:35 AM 23.0 °F 14.7 °F 17.6 °F 80% 30.16 in 10.0 mi South 6.9 mph - N/A   Clear
3:55 AM 23.0 °F 15.8 °F 17.6 °F 80% 30.16 in 10.0 mi SSE 5.8 mph - N/A   Clear
4:15 AM 26.6 °F 16.2 °F 19.4 °F 74% 30.15 in 10.0 mi South 11.5 mph - N/A   Clear
4:35 AM 28.4 °F 18.0 °F 17.6 °F 64% 30.14 in 10.0 mi South 12.7 mph - N/A   Clear
4:55 AM 30.2 °F 19.3 °F 17.6 °F 60% 30.14 in 10.0 mi SSW 15.0 mph - N/A   Clear
5:15 AM 30.2 °F 19.3 °F 17.6 °F 60% 30.13 in 10.0 mi South 15.0 mph - N/A   Clear
5:35 AM 30.2 °F 19.3 °F 17.6 °F 60% 30.12 in 10.0 mi SSW 15.0 mph - N/A   Clear
5:55 AM 30.2 °F 18.5 °F 17.6 °F 60% 30.12 in 10.0 mi SSW 17.3 mph 20.7 mph N/A   Clear
6:15 AM 30.2 °F 18.5 °F 17.6 °F 60% 30.12 in 10.0 mi SSW 17.3 mph - N/A   Clear
6:35 AM 32.0 °F 20.5 °F 17.6 °F 55% 30.13 in 10.0 mi SSW 18.4 mph - N/A   Clear
6:55 AM 32.0 °F 20.8 °F 17.6 °F 55% 30.12 in 10.0 mi SSW 17.3 mph - N/A   Clear
7:15 AM 32.0 °F 20.5 °F 17.6 °F 55% 30.12 in 10.0 mi SSW 18.4 mph - N/A   Clear
7:35 AM 32.0 °F 19.5 °F 19.4 °F 60% 30.12 in 10.0 mi South 21.9 mph - N/A   Clear
7:55 AM 32.0 °F 20.1 °F 19.4 °F 60% 30.12 in 10.0 mi SSW 19.6 mph - N/A   Clear
8:15 AM 32.0 °F 20.5 °F 19.4 °F 60% 30.12 in 10.0 mi SSW 18.4 mph 25.3 mph N/A   Clear
8:55 AM 33.8 °F 21.6 °F 17.6 °F 52% 30.11 in 10.0 mi SSW 23.0 mph 29.9 mph N/A   Clear
9:15 AM 33.8 °F 21.6 °F 17.6 °F 52% 30.12 in 10.0 mi SSW 23.0 mph 27.6 mph N/A   Clear
9:35 AM 35.6 °F 24.5 °F 17.6 °F 48% 30.13 in 10.0 mi SSW 20.7 mph 29.9 mph N/A   Clear
9:55 AM 37.4 °F 25.2 °F 19.4 °F 48% 30.13 in 10.0 mi SSW 28.8 mph 38.0 mph N/A   Clear
10:15 AM 37.4 °F 26.4 °F 17.6 °F 45% 30.12 in 10.0 mi SSW 23.0 mph 38.0 mph N/A   Clear
10:35 AM 42.8 °F 32.5 °F 15.8 °F 34% 30.13 in 10.0 mi SSW 28.8 mph 38.0 mph N/A   Clear
10:55 AM 41.0 °F 29.7 °F 14.0 °F 33% 30.12 in 10.0 mi SSW 31.1 mph 39.1 mph N/A   Clear
11:15 AM 42.8 °F 31.9 °F 14.0 °F 31% 30.12 in 10.0 mi SSW 32.2 mph 42.6 mph N/A   Clear
11:35 AM 42.8 °F 31.1 °F 14.0 °F 31% 30.12 in 10.0 mi SSW 38.0 mph 46.0 mph N/A   Clear
11:55 AM 42.8 °F 32.1 °F 14.0 °F 31% 30.10 in 10.0 mi SSW 31.1 mph 40.3 mph N/A   Clear
12:15 PM 42.8 °F 32.3 °F 14.0 °F 31% 30.10 in 10.0 mi SSW 29.9 mph 35.7 mph N/A   Clear
12:35 PM 42.8 °F 32.5 °F 15.8 °F 34% 30.08 in 10.0 mi SSW 28.8 mph 35.7 mph N/A   Clear
12:55 PM 42.8 °F 33.1 °F 15.8 °F 34% 30.06 in 10.0 mi SSW 25.3 mph 35.7 mph N/A   Clear
1:15 PM 41.0 °F 30.9 °F 15.8 °F 36% 30.06 in 10.0 mi SSW 24.2 mph 31.1 mph N/A   Clear
1:35 PM 42.8 °F 33.3 °F 17.6 °F 36% 30.04 in 10.0 mi SSW 24.2 mph 29.9 mph N/A   Clear
1:55 PM 44.6 °F 35.9 °F 17.6 °F 34% 30.04 in 10.0 mi South 23.0 mph 27.6 mph N/A   Clear
2:15 PM 42.8 °F 33.8 °F 17.6 °F 36% 30.03 in 10.0 mi SSW 21.9 mph 26.5 mph N/A   Clear
2:35 PM 44.6 °F 36.1 °F 17.6 °F 34% 30.02 in 10.0 mi SSW 21.9 mph 26.5 mph N/A   Clear
2:55 PM 42.8 °F 34.3 °F 17.6 °F 36% 30.02 in 10.0 mi South 19.6 mph 25.3 mph N/A   Clear
3:15 PM 42.8 °F 34.0 °F 17.6 °F 36% 30.02 in 10.0 mi South 20.7 mph 27.6 mph N/A   Clear
3:35 PM 42.8 °F 34.0 °F 17.6 °F 36% 30.00 in 10.0 mi SSW 20.7 mph 25.3 mph N/A   Scattered Clouds
3:55 PM 42.8 °F 34.5 °F 15.8 °F 34% 30.01 in 10.0 mi South 18.4 mph 24.2 mph N/A   Clear
4:15 PM 42.8 °F 34.8 °F 17.6 °F 36% 30.01 in 10.0 mi SSW 17.3 mph 20.7 mph N/A   Clear
4:35 PM 41.0 °F 33.1 °F 17.6 °F 39% 29.99 in 10.0 mi South 15.0 mph 19.6 mph N/A   Clear
4:55 PM 41.0 °F 33.1 °F 17.6 °F 39% 29.99 in 10.0 mi South 15.0 mph 23.0 mph N/A   Clear
5:15 PM 41.0 °F 33.1 °F 17.6 °F 39% 29.98 in 10.0 mi South 15.0 mph 19.6 mph N/A   Clear
5:35 PM 39.2 °F 31.6 °F 17.6 °F 42% 29.99 in 10.0 mi South 12.7 mph - N/A   Clear
5:55 PM 37.4 °F 31.4 °F 17.6 °F 45% 30.00 in 10.0 mi SSE 8.1 mph - N/A   Clear
6:15 PM 37.4 °F 30.8 °F 19.4 °F 48% 30.00 in 10.0 mi SSE 9.2 mph - N/A   Clear
6:35 PM 35.6 °F 27.5 °F 19.4 °F 52% 30.01 in 10.0 mi SSE 11.5 mph - N/A   Clear
6:55 PM 35.6 °F 27.5 °F 19.4 °F 52% 30.01 in 10.0 mi SSE 11.5 mph - N/A   Scattered Clouds
7:15 PM 35.6 °F 28.0 °F 19.4 °F 52% 30.00 in 10.0 mi SSE 10.4 mph - N/A   Scattered Clouds
7:35 PM 35.6 °F 27.1 °F 19.4 °F 52% 30.01 in 10.0 mi SSE 12.7 mph - N/A   Clear
7:55 PM 35.6 °F 26.6 °F 19.4 °F 52% 30.00 in 10.0 mi SSE 13.8 mph - N/A   Clear
8:15 PM 35.6 °F 26.6 °F 19.4 °F 52% 29.99 in 10.0 mi SSE 13.8 mph - N/A   Clear
8:35 PM 35.6 °F 26.6 °F 17.6 °F 48% 29.99 in 10.0 mi South 13.8 mph - N/A   Clear
8:55 PM 33.8 °F 24.3 °F 19.4 °F 56% 29.98 in 10.0 mi SSE 13.8 mph - N/A   Clear
9:15 PM 35.6 °F 25.9 °F 17.6 °F 48% 29.98 in 10.0 mi SSE 16.1 mph 20.7 mph N/A   Scattered Clouds
9:55 PM 35.6 °F 26.2 °F 19.4 °F 52% 29.99 in 10.0 mi South 15.0 mph - N/A   Scattered Clouds
10:15 PM 35.6 °F 27.5 °F 19.4 °F 52% 30.00 in 10.0 mi South 11.5 mph - N/A   Clear
10:35 PM 35.6 °F 27.5 °F 19.4 °F 52% 30.00 in 10.0 mi South 11.5 mph - N/A   Clear
10:55 PM 35.6 °F 28.0 °F 19.4 °F 52% 30.00 in 10.0 mi South 10.4 mph - N/A   Mostly Cloudy
11:15 PM 33.8 °F 25.8 °F 23.0 °F 65% 30.01 in 7.0 mi South 10.4 mph - N/A   Overcast
11:35 PM 33.8 °F 25.3 °F 28.4 °F 81% 30.02 in 7.0 mi South 11.5 mph - N/A   Overcast
11:55 PM 32.0 °F 23.0 °F 30.2 °F 93% 30.01 in 5.0 mi SSE 11.5 mph - 0.02 in   Overcast